Simultaneous Nadir Overpasses (SNOs) Predictions

Prediction of SNOs between NOAA-20 and NOAA-19 Satellite Orbit:

Table of predicted SNOs for the next 14.0 days since TLE Epoch: 1/12/2018
Index Date (NOAA-20) Time (NOAA-20) Lat,Lon (NOAA-20) SZA (NOAA-20 ) Date (NOAA-19) Time (NOAA-19) Lat,Lon (NOAA-19) SZA (NOAA-19 ) Distance(km) Time Diff (sec)
1 01/17/2018 21:24:32 80.68, 171.85 104.39 01/17/2018 21:23:17 80.69, 171.95 104.42 1.95 75
2 01/17/2018 22:15:17 -80.68, -20.86 75.62 01/17/2018 22:14:23 -80.69, -20.89 75.58 0.63 54
3 01/17/2018 23:06:02 80.68, 146.44 104.38 01/17/2018 23:05:18 80.69, 146.56 104.40 2.36 44
4 01/17/2018 23:56:47 -80.69, -46.27 75.63 01/17/2018 23:56:24 -80.69, -46.28 75.61 0.52 23
5 01/18/2018 00:47:32 80.69, 121.03 104.38 01/18/2018 00:47:19 80.70, 121.17 104.37 2.78 13
6 01/18/2018 01:38:17 -80.69, -71.67 75.63 01/18/2018 01:38:25 -80.69, -71.66 75.63 0.75 8
7 01/18/2018 02:29:02 80.69, 95.62 104.37 01/18/2018 02:29:20 80.70, 95.78 104.35 3.19 18
8 01/18/2018 03:19:47 -80.69, -97.08 75.64 01/18/2018 03:20:26 -80.70, -97.05 75.66 1.13 39
9 01/18/2018 04:10:32 80.69, 70.21 104.36 01/18/2018 04:11:22 80.69, 70.04 104.36 3.18 50




NCC Satellite Simultaneous Nadir Overpasses (SNOs) Prediction Service
